Location: Astronomy Club of Akron Observatory
(40.9700°N, 81.5606°W)
Time: 21:47:48
(UTC-04:00)

Hubble Space Telescope - Visible Passes

Search period start: 22 April 2018 00:00
Search period end: 02 May 2018 00:00
Orbit: 537 x 541 km, 28.5° (Epoch: 22 April)

Date Brightness Start Highest point End Pass type
(mag) Time Alt. Az. Time Alt. Az. Time Alt. Az.
27 Apr 2.9 21:08:53 10° S 21:09:56 11° SSE 21:10:58 10° SSE visible
28 Apr 2.9 20:57:51 10° SSW 20:59:28 12° S 21:01:05 10° SSE visible
29 Apr 3.3 22:27:22 10° SW 22:27:28 10° SW 22:27:28 10° SW visible
30 Apr 3.1 22:17:07 10° SW 22:17:47 12° SSW 22:17:47 12° SSW visible
01 May 3.1 22:07:01 10° SSW 22:08:03 12° SSW 22:08:03 12° SSW visible
